Location: Luxembourg
(49.6117°N, 6.1300°E)
Time: 15:48:11
(UTC+01:00)

Tiros 1 despin weight - All Passes

Search period start: 02 November 2024 00:00
Search period end: 12 November 2024 00:00
Orbit: 572 x 612 km, 48.2° (Epoch: 31 October)

Date Brightness Start Highest point End Pass type
(mag) Time Alt. Az. Time Alt. Az. Time Alt. Az.
02 Nov - 08:51:29 10° SSW 08:55:01 24° SSE 08:58:32 10° E daylight
02 Nov - 10:31:13 10° WSW 10:35:30 60° SSE 10:39:45 10° E daylight
02 Nov - 12:12:02 10° W 12:16:20 72° S 12:20:36 10° ESE daylight
02 Nov - 13:53:00 10° W 13:57:00 38° SSW 14:00:58 10° SE daylight
02 Nov - 15:35:44 10° WSW 15:37:05 11° SW 15:38:27 10° SSW daylight
03 Nov - 08:58:46 10° SW 09:02:43 34° SSE 09:06:38 10° E daylight
03 Nov - 10:39:01 10° WSW 10:43:20 70° S 10:47:38 10° E daylight
03 Nov - 12:19:54 10° W 12:24:11 65° S 12:28:26 10° ESE daylight
03 Nov - 14:01:02 10° W 14:04:42 28° SSW 14:08:22 10° SSE daylight
04 Nov - 07:27:39 10° S 07:30:11 15° SE 07:32:43 10° ESE daylight
04 Nov - 09:06:15 10° SW 09:10:26 45° SSE 09:14:34 10° E daylight
04 Nov - 10:46:50 10° W 10:51:11 74° S 10:55:29 10° E daylight
04 Nov - 12:27:46 10° W 12:31:59 53° SSW 12:36:09 10° ESE daylight
04 Nov - 14:09:13 10° W 14:12:19 19° SW 14:15:24 10° S daylight
05 Nov - 07:34:20 10° SSW 07:37:45 22° SE 07:41:08 10° E daylight
05 Nov - 09:13:53 10° WSW 09:18:10 57° SSE 09:22:25 10° E daylight
05 Nov - 10:54:39 10° W 10:58:59 74° S 11:03:17 10° E daylight
05 Nov - 12:35:37 10° W 12:39:41 41° SSW 12:43:43 10° SE daylight
05 Nov - 14:17:53 10° WSW 14:19:49 13° SW 14:21:46 10° SSW daylight
06 Nov - 07:41:26 10° SSW 07:45:20 31° SSE 07:49:11 10° E daylight
06 Nov - 09:21:35 10° WSW 09:25:55 68° S 09:30:13 10° E daylight
06 Nov - 11:02:26 10° W 11:06:46 67° S 11:11:02 10° ESE daylight
06 Nov - 12:43:32 10° W 12:47:19 30° SSW 12:51:05 10° SSE daylight
07 Nov - 06:10:32 10° S 06:12:45 14° SE 06:14:57 10° ESE visible
07 Nov - 07:48:47 10° SW 07:52:56 42° SSE 07:57:03 10° E daylight
07 Nov - 09:29:18 10° W 09:33:40 74° S 09:37:58 10° E daylight
07 Nov - 11:10:12 10° W 11:14:28 57° SSW 11:18:41 10° ESE daylight
07 Nov - 12:51:33 10° W 12:54:51 22° SW 12:58:08 10° SSE daylight
08 Nov - 06:16:56 10° SSW 06:20:11 20° SE 06:23:26 10° E visible
08 Nov - 07:56:17 10° WSW 08:00:34 54° SSE 08:04:49 10° E daylight
08 Nov - 09:37:01 10° W 09:41:22 74° S 09:45:41 10° E daylight
08 Nov - 11:17:58 10° W 11:22:06 44° SSW 11:26:12 10° SE daylight
08 Nov - 12:59:55 10° WSW 13:02:18 15° SW 13:04:39 10° S daylight
09 Nov - 06:23:51 10° SSW 06:27:39 29° SSE 06:31:26 10° E visible
09 Nov - 08:03:51 10° WSW 08:08:13 65° SSE 08:12:31 10° E daylight
09 Nov - 09:44:42 10° W 09:49:03 69° S 09:53:21 10° ESE daylight
09 Nov - 11:25:45 10° W 11:29:39 33° SSW 11:33:31 10° SE daylight
10 Nov - 04:53:17 10° SSE 04:55:03 12° SE 04:56:48 10° ESE visible
10 Nov - 06:31:03 10° SW 06:35:10 39° SSE 06:39:15 10° E visible
10 Nov - 08:11:28 10° WSW 08:15:51 73° S 08:20:11 10° E daylight
10 Nov - 09:52:22 10° W 09:56:41 60° SSW 10:00:55 10° ESE daylight
10 Nov - 11:33:37 10° W 11:37:06 24° SSW 11:40:34 10° SSE daylight
11 Nov - 04:59:18 10° S 05:02:22 19° SE 05:05:26 10° E visible
11 Nov - 06:38:24 10° WSW 06:42:42 51° SSE 06:46:56 10° E visible
11 Nov - 08:19:05 10° W 08:23:29 75° S 08:27:49 10° E daylight
11 Nov - 10:00:02 10° W 10:04:14 48° SSW 10:08:23 10° SE daylight
11 Nov - 11:41:44 10° WSW 11:44:28 16° SW 11:47:11 10° S daylight
